[[{"header":{"parameterUnit":"m.s-1","parameterCategory":1,"la1":30.2991,"la2":30.254,"lo1":-89.0895,"lo2":-89.0444,"dy":0.0017,"dx":0.0017,"nx":28,"ny":28,"refTime":"2023-09-08T21:00:00:Z","depth":0,"parameterNumber":2,"parameterNumberName":"U-component_of_WINDS"},"data":[0,0,0,0,0,0,0,0,0,0,0,0,0,0,0,0,0,0,0,0,0,0,0,0,0,0,0,0,0,0,0,0,0,0,0,0,0,0,0,0,0,0,0,0,0,0,0,0,0,0,0,0,0,0,0,0,0,0,-1.1882,-1.1882,0,-1.1836,-1.1835,-1.1835,-1.1785,-1.1784,-1.1784,-1.1783,-1.1735,-1.1734,-1.1734,0,0,0,0,0,0,0,0,0,0,0,0,0,-1.1927,-1.1927,-1.1882,-1.1882,-1.1881,-1.1836,-1.1835,-1.1835,-1.1785,-1.1784,-1.1783,-1.1783,-1.1735,-1.1734,-1.1734,0,0,0,0,0,0,0,0,0,0,0,0,0,-1.1897,-1.1927,-1.1882,-1.1851,-1.1848,-1.1836,-1.1835,-1.1835,-1.1785,-1.1784,-1.1783,-1.1782,-1.1735,-1.1734,-1.1733,-1.1749,0,0,-1.1731,-1.173,0,0,0,0,0,0,0,0,-1.1899,-1.1895,-1.1856,-1.1853,-1.1849,-1.1815,-1.1833,-1.1806,-1.1786,-1.1809,-1.1783,-1.1782,-1.1762,-1.1759,-1.1753,-1.1747,-1.1745,-1.1731,-1.173,-1.173,-1.1729,0,0,0,0,0,0,0,-1.1901,-1.1897,-1.1864,-1.1856,-1.1852,-1.1839,-1.1834,-1.1828,-1.1792,-1.1807,-1.1803,-1.1798,-1.176,-1.1754,-1.1751,-1.1744,-1.1731,-1.173,-1.1729,-1.1729,-1.1748,-1.1749,0,0,0,0,0,0,-1.1908,-1.1899,-1.1865,-1.1863,-1.1872,-1.1839,-1.1833,-1.1827,-1.1792,-1.1786,-1.1799,-1.1796,-1.1756,-1.1752,-1.1749,-1.1765,-1.173,-1.1729,-1.1728,-1.1747,-1.1748,-1.1749,0,0,0,0,0,0,-1.1909,-1.1905,-1.1867,-1.188,-1.1874,-1.1839,-1.1833,-1.1827,-1.182,-1.1786,-1.178,-1.1799,-1.1755,-1.1751,-1.1749,-1.1763,-1.1728,-1.1727,-1.1746,-1.1747,-1.1749,-1.1798,0,0,0,0,0,0,-1.1911,-1.1906,-1.1912,-1.188,-1.1874,-1.1869,-1.1834,-1.1827,-1.1819,-1.1814,-1.1785,-1.1779,-1.1754,-1.1751,-1.1748,-1.1761,-1.1727,-1.1744,-1.1746,-1.1748,-1.1795,-1.1801,-1.1806,0,0,0,0,0,-1.1912,-1.1927,-1.1912,-1.1909,-1.188,-1.1869,-1.1866,-1.1837,-1.182,-1.1826,-1.1804,-1.178,-1.1762,-1.1751,-1.1748,-1.1761,-1.1743,-1.1746,-1.1748,-1.1792,-1.18,-1.1806,0,0,0,0,0,0,-1.1961,-1.1923,-1.1906,-1.1911,-1.1894,-1.1861,-1.1867,-1.1845,-1.1833,-1.1829,-1.1793,-1.1787,-1.179,-1.1775,-1.1764,-1.1774,-1.1749,-1.1751,-1.1784,-1.179,-1.1796,-1.18,-1.1726,0,0,0,0,0,-1.1973,-1.1968,-1.1934,-1.1942,-1.1934,-1.1902,-1.1896,-1.1876,-1.1857,-1.1849,-1.1827,-1.1809,-1.1799,-1.1794,-1.1783,-1.1792,-1.1785,-1.1799,-1.1804,-1.1809,-1.1812,-1.1815,-1.1821,-1.1757,-1.1757,-1.1757,0,0,-1.1996,-1.1974,-1.1973,-1.1951,-1.1935,-1.1931,-1.1896,-1.1893,-1.1889,-1.1848,-1.1846,-1.1829,-1.1807,-1.1811,-1.1811,-1.1798,-1.1827,-1.1812,-1.1816,-1.1816,-1.1818,-1.1824,-1.183,-1.1759,-1.1759,-1.1758,0,0,-1.2037,-1.202,-1.2025,-1.201,-1.1986,-1.1965,-1.1966,-1.1937,-1.1924,-1.1921,-1.189,-1.1885,-1.1869,-1.1854,-1.1845,-1.188,-1.1857,-1.1877,-1.1907,-1.1911,-1.1916,-1.192,-1.1933,-1.1938,-1.1879,-1.1879,-1.1879,0,-1.2069,-1.2061,-1.203,-1.2028,-1.202,-1.1982,-1.1987,-1.1974,-1.1948,-1.1943,-1.1928,-1.1907,-1.189,-1.189,-1.1899,-1.1892,-1.1892,-1.1881,-1.1918,-1.1922,-1.1925,-1.1937,-1.1942,-1.1882,-1.1882,-1.1881,-1.1881,0,-1.2102,-1.2097,-1.2104,-1.2081,-1.2072,-1.2074,-1.2042,-1.2038,-1.2017,-1.1998,-1.1995,-1.1972,-1.1956,-1.1954,-1.1935,-1.1952,-1.1945,-1.1924,-1.1899,-1.1935,-1.1945,-1.195,-1.1886,-1.1885,-1.1884,-1.1883,0,0,-1.2174,-1.2133,-1.2136,-1.2125,-1.2096,-1.2091,-1.2091,-1.2076,-1.2072,-1.2056,-1.2055,-1.2042,-1.2023,-1.2012,-1.199,-1.1994,-1.2023,-1.1973,-1.1972,-1.1984,-1.2041,-1.2058,-1.2064,-1.2008,-1.2008,-1.2009,-1.2044,0,-1.221,-1.2208,-1.218,-1.2185,-1.218,-1.2145,-1.2144,-1.2126,-1.2108,-1.21,-1.2079,-1.2071,-1.2046,-1.204,-1.2041,-1.2019,-1.2035,-1.2016,-1.2007,-1.2007,-1.2015,-1.2069,-1.2086,-1.212,-1.2047,-1.2048,-1.2049,0,-1.2253,-1.2239,-1.2245,-1.2216,-1.2213,-1.2213,-1.2197,-1.219,-1.2169,-1.2155,-1.2143,-1.2118,-1.2115,-1.2091,-1.2087,-1.2075,-1.2069,-1.2058,-1.2058,-1.2057,-1.2031,-1.207,-1.213,-1.2136,-1.2055,-1.2054,-1.2054,0,-1.2306,-1.2288,-1.2289,-1.2281,-1.2247,-1.2248,-1.2234,-1.2212,-1.2204,-1.219,-1.2184,-1.217,-1.2162,-1.2151,-1.2122,-1.2107,-1.2122,-1.2095,-1.211,-1.2111,-1.2116,-1.2116,-1.2177,-1.2111,-1.211,-1.211,-1.211,0,-1.235,-1.2355,-1.2312,-1.2313,-1.2318,-1.2284,-1.229,-1.2272,-1.2252,-1.2249,-1.2217,-1.2214,-1.2176,-1.2169,-1.2147,-1.2147,-1.2143,-1.2132,-1.2126,-1.2136,-1.2137,-1.2132,-1.213,-1.2112,-1.2111,-1.2111,-1.2111,0,-1.241,-1.2382,-1.2381,-1.2349,-1.2341,-1.2346,-1.2318,-1.2317,-1.2296,-1.2292,-1.2289,-1.2256,-1.2246,-1.2216,-1.2199,-1.2184,-1.2191,-1.2179,-1.2198,-1.2195,-1.2213,-1.2212,-1.2273,-1.2279,-1.2208,-1.2209,-1.221,0,-1.2441,-1.2444,-1.2412,-1.2408,-1.2395,-1.2388,-1.2381,-1.2348,-1.2341,-1.2317,-1.2319,-1.2307,-1.2295,-1.2281,-1.2255,-1.2241,-1.223,-1.2252,-1.2227,-1.2237,-1.2231,-1.2232,-1.2232,-1.2258,-1.2259,-1.2259,-1.226,0,-1.2499,-1.2485,-1.2475,-1.2461,-1.2452,-1.2439,-1.2424,-1.2422,-1.2385,-1.2379,-1.2369,-1.236,-1.2342,-1.233,-1.2312,-1.2297,-1.2273,-1.2268,-1.2271,-1.2281,-1.2293,-1.2288,-1.2214,-1.2267,-1.2266,-1.2266,-1.2265,-1.2265,-1.2546,-1.2547,-1.2525,-1.2516,-1.2501,-1.2487,-1.2485,-1.2464,-1.2455,-1.2438,-1.2418,-1.2411,-1.2389,-1.2362,-1.2349,-1.2342,-1.2329,-1.2333,-1.2334,-1.2336,-1.2341,-1.2293,-1.2338,-1.2338,-1.2338,-1.2338,-1.2338,0,-1.2604,-1.2587,-1.2579,-1.2559,-1.2551,-1.2528,-1.251,-1.2506,-1.2499,-1.2481,-1.247,-1.2458,-1.2446,-1.2419,-1.2405,-1.2405,-1.2393,-1.2402,-1.2402,-1.2399,-1.2353,-1.2352,-1.2412,-1.2412,-1.2412,-1.2412,-1.2411,-1.2411,-1.2633,-1.2634,-1.2617,-1.261,-1.2593,-1.2586,-1.2577,-1.2565,-1.255,-1.2539,-1.2529,-1.2511,-1.2489,-1.2473,-1.2461,-1.2453,-1.245,-1.2463,-1.2452,-1.2409,-1.2402,-1.2396,-1.2395,-1.2462,-1.2462,-1.2498,-1.2499,-1.2499]},{"header":{"parameterUnit":"m.s-1","parameterCategory":1,"la1":30.2991,"la2":30.254,"lo1":-89.0895,"lo2":-89.0444,"dy":0.0017,"dx":0.0017,"nx":28,"ny":28,"refTime":"2023-09-08T21:00:00:Z","depth":0,"parameterNumber":3,"parameterNumberName":"V-component_of_WINDS"},"data":[0,0,0,0,0,0,0,0,0,0,0,0,0,0,0,0,0,0,0,0,0,0,0,0,0,0,0,0,0,0,0,0,0,0,0,0,0,0,0,0,0,0,0,0,0,0,0,0,0,0,0,0,0,0,0,0,0,0,-2.5429,-2.5429,0,-2.5435,-2.5435,-2.5435,-2.5392,-2.5391,-2.539,-2.5388,-2.5394,-2.5395,-2.5396,0,0,0,0,0,0,0,0,0,0,0,0,0,-2.5378,-2.5379,-2.5429,-2.5429,-2.5429,-2.5435,-2.5435,-2.5435,-2.5392,-2.5391,-2.5389,-2.5388,-2.5393,-2.5395,-2.5396,0,0,0,0,0,0,0,0,0,0,0,0,0,-2.5394,-2.538,-2.5429,-2.5408,-2.5406,-2.5435,-2.5435,-2.5435,-2.5393,-2.5391,-2.5389,-2.5387,-2.5393,-2.5395,-2.5396,-2.5445,0,0,-2.5402,-2.5403,0,0,0,0,0,0,0,0,-2.5393,-2.5396,-2.5411,-2.541,-2.5408,-2.5411,-2.5419,-2.5438,-2.5393,-2.5398,-2.5388,-2.5386,-2.5401,-2.5402,-2.5407,-2.5445,-2.5445,-2.5402,-2.5404,-2.5404,-2.5405,0,0,0,0,0,0,0,-2.5392,-2.5395,-2.5431,-2.5411,-2.5409,-2.5398,-2.5399,-2.5423,-2.5409,-2.5397,-2.5394,-2.5396,-2.5399,-2.5405,-2.5407,-2.5445,-2.5402,-2.5404,-2.5405,-2.5406,-2.5524,-2.5526,0,0,0,0,0,0,-2.5394,-2.5395,-2.5431,-2.5431,-2.5396,-2.5401,-2.5401,-2.5412,-2.5409,-2.5407,-2.5397,-2.5394,-2.5403,-2.5405,-2.5407,-2.5464,-2.5404,-2.5406,-2.5407,-2.5522,-2.5524,-2.5526,0,0,0,0,0,0,-2.5393,-2.5397,-2.5431,-2.5412,-2.5416,-2.5404,-2.5416,-2.5413,-2.5419,-2.5409,-2.5406,-2.5406,-2.5402,-2.5404,-2.5436,-2.5464,-2.5407,-2.5409,-2.552,-2.5523,-2.5525,-2.5578,0,0,0,0,0,0,-2.5392,-2.5397,-2.5416,-2.5413,-2.5417,-2.546,-2.5418,-2.5414,-2.5422,-2.5418,-2.5416,-2.5414,-2.54,-2.5433,-2.5438,-2.5465,-2.541,-2.5517,-2.5521,-2.5524,-2.5574,-2.5583,-2.559,0,0,0,0,0,-2.539,-2.543,-2.5417,-2.5422,-2.544,-2.5462,-2.5464,-2.5448,-2.5425,-2.5443,-2.5437,-2.5414,-2.546,-2.5437,-2.5442,-2.547,-2.5515,-2.552,-2.5524,-2.5571,-2.5581,-2.559,0,0,0,0,0,0,-2.5436,-2.5429,-2.5415,-2.5455,-2.546,-2.5455,-2.5477,-2.5459,-2.547,-2.5465,-2.5444,-2.5444,-2.5479,-2.5477,-2.5452,-2.5517,-2.5483,-2.5489,-2.5517,-2.5527,-2.5535,-2.5535,-2.5412,0,0,0,0,0,-2.5451,-2.547,-2.5463,-2.5499,-2.5502,-2.5489,-2.5498,-2.5486,-2.5489,-2.549,-2.5486,-2.549,-2.5506,-2.5516,-2.5529,-2.5573,-2.5573,-2.5595,-2.5603,-2.561,-2.5615,-2.564,-2.565,-2.5541,-2.5541,-2.5541,0,0,-2.5481,-2.548,-2.5493,-2.5508,-2.551,-2.553,-2.5491,-2.5514,-2.5528,-2.5494,-2.5524,-2.5521,-2.5524,-2.5563,-2.5579,-2.5562,-2.5645,-2.5616,-2.5621,-2.5623,-2.5645,-2.5656,-2.5665,-2.5544,-2.5544,-2.5543,0,0,-2.5548,-2.5549,-2.558,-2.5583,-2.5586,-2.5578,-2.5585,-2.5583,-2.558,-2.561,-2.5585,-2.5602,-2.5628,-2.5632,-2.5637,-2.5706,-2.5685,-2.571,-2.5753,-2.5777,-2.5785,-2.5793,-2.5818,-2.5827,-2.5715,-2.5716,-2.5716,0,-2.5586,-2.5616,-2.5598,-2.5622,-2.563,-2.56,-2.5631,-2.5634,-2.5642,-2.5648,-2.5629,-2.5662,-2.5661,-2.5701,-2.5718,-2.5723,-2.5731,-2.5711,-2.5785,-2.5793,-2.5799,-2.5824,-2.5833,-2.5719,-2.5718,-2.5718,-2.5718,0,-2.5662,-2.5683,-2.5708,-2.5717,-2.5727,-2.5755,-2.5741,-2.5753,-2.5739,-2.5733,-2.5764,-2.5763,-2.5776,-2.5784,-2.577,-2.5822,-2.5811,-2.5789,-2.5755,-2.5813,-2.5836,-2.5845,-2.5723,-2.5722,-2.5721,-2.572,0,0,-2.5758,-2.5758,-2.5767,-2.5771,-2.5773,-2.5789,-2.5815,-2.5829,-2.584,-2.5846,-2.5868,-2.5892,-2.5872,-2.5878,-2.5864,-2.5885,-2.5941,-2.586,-2.586,-2.5876,-2.5998,-2.6016,-2.6027,-2.5927,-2.5929,-2.593,-2.5998,0,-2.5824,-2.587,-2.5855,-2.5902,-2.5921,-2.5893,-2.5916,-2.592,-2.5915,-2.593,-2.5924,-2.5941,-2.5913,-2.5916,-2.5936,-2.593,-2.5965,-2.5924,-2.5948,-2.5949,-2.5949,-2.6038,-2.6057,-2.6121,-2.6007,-2.6008,-2.6009,0,-2.5907,-2.5918,-2.5967,-2.5967,-2.5974,-2.5996,-2.6007,-2.6022,-2.6026,-2.6021,-2.6028,-2.601,-2.6036,-2.6001,-2.6037,-2.601,-2.6018,-2.6017,-2.6019,-2.6021,-2.5983,-2.6044,-2.6141,-2.6152,-2.6023,-2.6022,-2.6021,0,-2.5974,-2.6,-2.6033,-2.6038,-2.6038,-2.6054,-2.6054,-2.6056,-2.6065,-2.6075,-2.6081,-2.6093,-2.6101,-2.6111,-2.6097,-2.6073,-2.6135,-2.6099,-2.6131,-2.6132,-2.6146,-2.6146,-2.6248,-2.615,-2.615,-2.615,-2.615,0,-2.605,-2.6081,-2.6064,-2.6084,-2.6118,-2.61,-2.6135,-2.6132,-2.6134,-2.6154,-2.6129,-2.6148,-2.6128,-2.6145,-2.6134,-2.6166,-2.6168,-2.6165,-2.6162,-2.6168,-2.6169,-2.6174,-2.6169,-2.6152,-2.6152,-2.6151,-2.6151,0,-2.613,-2.612,-2.6154,-2.6152,-2.6152,-2.6177,-2.6175,-2.6194,-2.6187,-2.6212,-2.6216,-2.6205,-2.6224,-2.6211,-2.6229,-2.6221,-2.6264,-2.6254,-2.6263,-2.6261,-2.6295,-2.6292,-2.6404,-2.6418,-2.6311,-2.6312,-2.6313,0,-2.618,-2.6204,-2.6204,-2.6216,-2.6219,-2.6237,-2.6247,-2.623,-2.6241,-2.6248,-2.6266,-2.6282,-2.6295,-2.6325,-2.6319,-2.6333,-2.6324,-2.6362,-2.6326,-2.6331,-2.6326,-2.6325,-2.6328,-2.637,-2.6371,-2.6372,-2.6373,0,-2.627,-2.6264,-2.6279,-2.6293,-2.6306,-2.6315,-2.6323,-2.6334,-2.6317,-2.633,-2.635,-2.6359,-2.6378,-2.6395,-2.6407,-2.6407,-2.6388,-2.6384,-2.6393,-2.64,-2.6405,-2.6404,-2.6284,-2.6382,-2.6381,-2.638,-2.638,-2.638,-2.6337,-2.6358,-2.6362,-2.638,-2.6384,-2.6392,-2.641,-2.6405,-2.6421,-2.6436,-2.6425,-2.6448,-2.6451,-2.6465,-2.6467,-2.6485,-2.6469,-2.6481,-2.6484,-2.6488,-2.6493,-2.6401,-2.6487,-2.6486,-2.6486,-2.6486,-2.6486,0,-2.6427,-2.6428,-2.6445,-2.6458,-2.6472,-2.6452,-2.646,-2.6473,-2.6494,-2.6499,-2.6512,-2.6535,-2.6551,-2.6546,-2.6561,-2.6576,-2.6567,-2.658,-2.6579,-2.658,-2.6506,-2.6498,-2.6587,-2.6587,-2.6587,-2.6587,-2.6587,-2.6587,-2.6475,-2.6509,-2.6503,-2.6539,-2.6539,-2.6563,-2.6569,-2.6576,-2.658,-2.6607,-2.662,-2.6617,-2.6618,-2.6633,-2.6647,-2.6645,-2.6652,-2.6669,-2.6664,-2.6595,-2.6585,-2.6576,-2.6568,-2.667,-2.667,-2.6736,-2.6737,-2.6737]}]]